TimeEDT,TemperatureF,Dew PointF,Humidity,Sea Level PressureIn,VisibilityMPH,Wind Direction,Wind SpeedMPH,Gust SpeedMPH,PrecipitationIn,Events,Conditions,WindDirDegrees,DateUTC
12:54 AM,63.0,45.0,52,29.94,10.0,East,5.8,-,N/A,,Clear,80,2013-06-06 04:54:00
1:54 AM,63.0,43.0,48,29.94,10.0,East,6.9,-,N/A,,Clear,80,2013-06-06 05:54:00
2:54 AM,63.0,39.9,43,29.93,10.0,East,9.2,-,N/A,,Scattered Clouds,90,2013-06-06 06:54:00
3:54 AM,62.1,42.1,48,29.91,10.0,East,8.1,-,N/A,,Mostly Cloudy,80,2013-06-06 07:54:00
4:54 AM,61.0,43.0,52,29.90,10.0,ENE,4.6,-,N/A,,Scattered Clouds,60,2013-06-06 08:54:00
5:54 AM,60.1,48.0,64,29.89,10.0,ENE,4.6,-,N/A,,Overcast,60,2013-06-06 09:54:00
6:54 AM,60.1,48.0,64,29.89,10.0,ENE,6.9,-,0.00,,Overcast,70,2013-06-06 10:54:00
7:54 AM,60.1,48.0,64,29.90,10.0,East,5.8,-,N/A,,Partly Cloudy,90,2013-06-06 11:54:00
8:54 AM,61.0,48.0,62,29.91,10.0,East,6.9,-,N/A,,Clear,80,2013-06-06 12:54:00
9:54 AM,62.1,48.0,60,29.91,10.0,ENE,4.6,-,N/A,,Overcast,70,2013-06-06 13:54:00
10:54 AM,64.9,48.0,54,29.89,10.0,ENE,6.9,-,N/A,,Clear,70,2013-06-06 14:54:00
11:54 AM,69.1,48.9,49,29.87,10.0,NE,8.1,-,N/A,,Overcast,50,2013-06-06 15:54:00
12:54 PM,70.0,48.9,47,29.87,10.0,North,9.2,-,N/A,,Mostly Cloudy,10,2013-06-06 16:54:00
1:54 PM,70.0,48.9,47,29.87,10.0,North,6.9,-,N/A,,Overcast,10,2013-06-06 17:54:00
2:54 PM,64.9,53.1,65,29.87,10.0,North,10.4,-,0.00,Rain,Light Rain,350,2013-06-06 18:54:00
3:54 PM,66.9,53.1,61,29.86,10.0,North,11.5,-,0.00,,Mostly Cloudy,10,2013-06-06 19:54:00
4:54 PM,68.0,53.1,59,29.86,10.0,NNE,11.5,-,N/A,,Overcast,20,2013-06-06 20:54:00
5:54 PM,66.9,53.1,61,29.87,10.0,NNE,6.9,-,N/A,,Overcast,30,2013-06-06 21:54:00
6:54 PM,66.9,53.1,61,29.87,10.0,North,5.8,-,N/A,,Overcast,10,2013-06-06 22:54:00
7:54 PM,66.0,52.0,60,29.87,10.0,NNE,10.4,-,N/A,,Overcast,20,2013-06-06 23:54:00
8:54 PM,64.9,52.0,63,29.88,10.0,NNE,9.2,-,N/A,,Clear,20,2013-06-07 00:54:00
9:54 PM,63.0,52.0,67,29.88,10.0,NNE,5.8,-,N/A,,Mostly Cloudy,30,2013-06-07 01:54:00
10:54 PM,61.0,52.0,72,29.90,10.0,NNE,6.9,-,N/A,,Mostly Cloudy,30,2013-06-07 02:54:00
11:54 PM,59.0,51.1,75,29.89,10.0,NNE,6.9,-,N/A,,Clear,30,2013-06-07 03:54:00